{"data":{"norad_id":33595,"epoch":"2026-05-25T03:41:25.067904Z","epoch_age_seconds":64824,"freshness":"FRESH","line1":"1 33595U 09007A   26145.15376236 -.00000091  00000+0  00000+0 0  9991","line2":"2 33595   3.4071  78.6681 0004112 337.4529 230.9720  1.00271115 52052","mean_motion":1.00271115,"eccentricity":0.0004112,"inclination_deg":3.4071,"raan_deg":78.6681,"arg_perigee_deg":337.4529,"mean_anomaly_deg":230.972,"bstar":0,"rev_number":5205,"period_min":1436.1064998629,"perigee_km":35769.444572542,"apogee_km":35804.121002575,"semimajor_km":42164.919787558,"source":"CELESTRAK","updated_at":"2026-05-25T13:38:13.862475Z"}}